W3BW-5 Weather Reports


Display with metric or nautical units.
time (UTC)temp
F
wind
direction
speed
MPH
gust
MPH
rain 1hr
in
rain 24hr
in
rain mn
in
humidity
%
barometer
mb
20260504070303 48 195 3.0 4.0 36.63 0.00 0.00 96 1010.5
20260504045301 49 295 4.0 6.0 36.63 0.00 0.00 91 1010.5
20260504044308 49 245 1.0 4.0 36.63 0.00 0.00 91 1010.5
20260504043303 49 287 1.0 3.0 36.63 0.00 0.00 90 1010.4
20260504042305 49 283 3.0 4.0 36.63 0.00 0.00 89 1010.2
20260504041301 49 295 4.0 5.0 36.63 0.00 0.00 90 1010.2
20260504040302 49 291 3.0 5.0 36.63 0.00 0.00 90 1010.1
20260504035301 49 0 0.0 0.0 36.63 0.00 0.00 90 1010.1
20260504034302 48 0 0.0 0.0 36.63 0.00 0.00 90 1009.9
20260504033303 49 0 0.0 0.0 36.63 0.00 0.00 88 1009.7
20260504032304 49 0 0.0 0.0 36.63 0.00 0.00 87 1009.7
20260504031301 49 0 0.0 0.0 36.63 0.00 0.01 86 1009.6
20260504030309 50 0 0.0 0.0 36.63 0.00 0.01 86 1009.5
20260504025301 50 257 1.0 2.0 36.63 0.00 0.01 84 1009.5
20260504024301 50 309 2.0 3.0 36.63 0.00 0.01 85 1009.5
20260504023310 50 326 0.0 2.0 36.63 0.00 0.01 84 1009.4
20260504022304 50 338 1.0 3.0 36.63 0.00 0.01 84 1009.5
20260504021301 51 302 2.0 3.0 36.63 0.00 0.01 83 1009.5
20260504020305 51 288 0.0 2.0 36.63 0.00 0.01 84 1009.4
20260504015301 51 0 0.0 0.0 36.63 0.00 0.01 83 1009.4
20260504014303 51 284 1.0 2.0 36.63 0.00 0.01 81 1009.3
20260504013303 50 273 2.0 2.0 36.63 0.00 0.01 84 1009.3
20260504012304 51 0 0.0 0.0 36.63 0.00 0.01 84 1009.3
20260504011301 52 0 0.0 0.0 36.63 0.00 0.01 87 1009.0
20260504010307 52 0 0.0 0.0 36.63 0.00 0.01 85 1008.9
20260504005301 53 0 0.0 0.0 36.63 0.00 0.01 84 1008.9
20260504004303 53 0 0.0 0.0 36.63 0.00 0.01 80 1008.8
20260504003304 54 0 0.0 0.0 36.63 0.00 0.01 75 1008.5
20260504002304 55 0 0.0 0.0 36.63 0.00 0.01 70 1008.5
20260504001301 55 0 0.0 0.0 36.63 0.00 0.01 68 1008.3
20260504000303 56 0 0.0 0.0 36.63 0.00 0.01 66 1008.2
20260503235301 56 0 0.0 0.0 36.63 0.00 0.01 67 1008.0
20260503234303 57 267 2.0 2.0 36.63 0.00 0.01 65 1007.9
20260503233304 57 280 2.0 3.0 36.63 0.00 0.01 63 1007.9
20260503232305 58 262 5.0 9.0 36.63 0.00 0.01 63 1007.9
20260503231301 58 260 5.0 9.0 36.63 0.00 0.01 62 1007.9
20260503230308 58 242 2.0 5.0 36.63 0.00 0.01 63 1007.9
20260503225304 58 193 2.0 6.0 36.63 0.00 0.01 61 1007.7
20260503224305 58 264 6.0 10.0 36.63 0.00 0.01 61 1007.7
20260503223303 58 260 7.0 11.0 36.63 0.00 0.01 61 1007.7
20260503222304 58 300 7.0 11.0 36.63 0.00 0.01 60 1007.8
20260503221303 57 253 10.0 15.0 36.63 0.00 0.01 61 1007.8
20260503220310 57 252 7.0 13.0 36.63 0.00 0.01 62 1007.9
20260503215304 57 253 8.0 16.0 36.63 0.00 0.01 62 1007.9
20260503214303 57 256 10.0 19.0 36.63 0.00 0.01 62 1007.8
20260503213305 58 262 5.0 10.0 36.63 0.00 0.01 61 1007.8
20260503212304 57 257 8.0 15.0 36.63 0.00 0.01 64 1007.9
20260503211301 57 256 10.0 19.0 36.63 0.00 0.01 62 1007.8
20260503210309 56 252 11.0 17.0 36.63 0.00 0.01 64 1007.9
20260503205303 57 257 7.0 20.0 36.63 0.00 0.01 63 1007.9
20260503204304 57 255 11.0 20.0 36.63 0.00 0.01 65 1008.0
20260503203306 56 270 9.0 15.0 36.63 0.00 0.01 63 1008.0
20260503202307 57 250 11.0 21.0 36.63 0.00 0.01 64 1008.2
20260503201301 57 323 8.0 15.0 36.63 0.00 0.01 63 1008.3
20260503200309 56 271 11.0 18.0 36.63 0.00 0.01 64 1008.4
20260503195304 56 260 7.0 16.0 36.63 0.00 0.01 63 1008.5
20260503194303 56 239 6.0 12.0 36.63 0.00 0.01 60 1008.6
20260503193305 56 240 8.0 16.0 36.63 0.00 0.01 61 1008.6
20260503192307 56 259 7.0 14.0 36.63 0.00 0.01 62 1008.7
20260503191301 55 257 8.0 14.0 36.63 0.00 0.01 62 1008.9
20260503190307 55 242 7.0 12.0 36.63 0.00 0.01 63 1009.0
20260503185301 55 240 9.0 24.0 36.63 0.00 0.01 62 1009.1
20260503184305 54 198 6.0 14.0 36.63 0.00 0.01 63 1009.2
20260503183305 54 277 8.0 15.0 36.63 0.00 0.01 66 1009.3
20260503182305 54 270 5.0 14.0 36.63 0.00 0.01 63 1009.4
20260503181301 55 222 6.0 13.0 36.63 0.00 0.01 62 1009.4
20260503180304 54 238 7.0 16.0 36.63 0.00 0.01 62 1009.6
20260503175301 54 217 9.0 19.0 36.63 0.00 0.01 63 1009.7
20260503174303 54 243 8.0 17.0 36.63 0.00 0.01 64 1009.7
20260503173305 54 235 7.0 15.0 36.63 0.00 0.01 64 1009.8
20260503172305 53 218 6.0 12.0 36.63 0.00 0.01 66 1009.9
20260503171302 52 249 9.0 18.0 36.63 0.00 0.01 65 1009.7
20260503170305 54 246 5.0 13.0 36.63 0.00 0.01 68 1009.9
20260503150304 50 252 7.0 16.0 36.63 0.00 0.01 79 1010.7
20260503140305 48 249 6.0 12.0 36.63 0.00 0.01 82 1010.6
20260503131301 47 285 6.0 20.0 36.63 0.00 0.01 86 1010.7
20260503130304 46 250 6.0 16.0 36.63 0.00 0.01 86 1010.7
20260503110306 45 266 6.0 9.0 36.63 0.00 0.01 93 1009.5
20260503090305 45 233 3.0 6.0 36.63 0.00 0.01 97 1008.0
20260503081301 45 228 3.0 6.0 36.63 0.00 0.01 97 1007.7
20260503080305 46 307 3.0 6.0 36.63 0.00 0.01 96 1007.6